{"data":{"norad_id":66125,"epoch":"2026-09-20T13:47:07.529280Z","epoch_age_seconds":93999,"freshness":"FRESH","line1":"1 66125U 25237M   26263.57439270  .00016014  00000+0  48402-3 0  9997","line2":"2 66125  53.1584 211.1832 0001748  81.7269 278.3932 15.34404331 52491","mean_motion":15.34404331,"eccentricity":0.0001748,"inclination_deg":53.1584,"raan_deg":211.1832,"arg_perigee_deg":81.7269,"mean_anomaly_deg":278.3932,"bstar":0.00048402,"rev_number":5249,"period_min":93.847493187244,"perigee_km":461.49459096881,"apogee_km":463.88614421652,"semimajor_km":6840.8273675927,"source":"CELESTRAK","updated_at":"2026-09-21T09:00:35.808610Z"}}